Weather History for KFMN - July, 2012

Change the Weather History Date:

Monday, July 23, 2012

  Actual Average Record
Temperature  
Mean Temperature 80 °F -  
Max Temperature 95 °F 90 °F 99 °F (2005)
Min Temperature 66 °F 60 °F 54 °F (1979)
Cooling Degree Days 16    
Growing Degree Days 30 (Base 50)    
Moisture  
Dew Point 48 °F    
Average Humidity 33    
Maximum Humidity 57    
Minimum Humidity 10    
Precipitation  
Precipitation 0.00 in - - ()
Sea Level Pressure  
Sea Level Pressure 30.00 in    
Wind  
Wind Speed 8 mph (ESE)    
Max Wind Speed 20 mph    
Max Gust Speed 28 mph    
Visibility 10 miles    
Events Thunderstorm    
Averages and records for this station are not official NWS values.
T = Trace of Precipitation, MM = Missing Value Source: NWS Daily Summary

Daily Weather History Graph

Daily Weather History Graph

Search for Another Location

Airport or City:

Trip Planner

Search our weather history database for the weather conditions in past years. The results will help you decide how hot, cold, wet, or windy it might be!

Date:

Astronomy

Jul. 23, 2012 Rise Set
Actual Time 6:12 AM MDT 8:26 PM MDT
Civil Twilight 5:42 AM MDT 8:55 PM MDT
Nautical Twilight 5:06 AM MDT 9:31 PM MDT
Astronomical Twilight 4:27 AM MDT 10:10 PM MDT
Moon 10:56 AM MDT (7/23) 10:53 PM MDT (7/23)
Length of Visible Light 15h 12m
Length of Day
14h 14m
Waxing Crescent, 22% of the Moon is Illuminated
Jul 23
Waxing Crescent
Jul 26
First Quarter
Aug 1
Full
Aug 9
Last Quarter
Aug 17
New

Hourly Weather History & Observations

Time (MDT) Temp. Dew Point Humidity Pressure Visibility Wind Dir Wind Speed Gust Speed Precip Events Conditions
12:53 AM 78.1 °F 46.9 °F 33% 29.99 in 10.0 mi SE 3.5 mph - N/A   Partly Cloudy
1:25 AM 78.8 °F 48.2 °F 34% 30.22 in 10.0 mi Variable 4.6 mph - N/A Thunderstorm Scattered Clouds
1:53 AM 77.0 °F 46.9 °F 34% 29.99 in 10.0 mi West 11.5 mph 17.3 mph N/A Thunderstorm Overcast
2:06 AM 77.0 °F 46.4 °F 34% 30.22 in 10.0 mi West 11.5 mph - N/A   Mostly Cloudy
2:53 AM 75.9 °F 48.0 °F 37% 29.99 in 10.0 mi East 3.5 mph - N/A   Clear
3:53 AM 72.0 °F 50.0 °F 46% 30.01 in 10.0 mi East 8.1 mph - N/A   Clear
5:53 AM 66.9 °F 50.0 °F 54% 30.04 in 10.0 mi ENE 6.9 mph - N/A   Clear
6:53 AM 66.9 °F 51.1 °F 57% 30.05 in 10.0 mi East 8.1 mph - N/A   Clear
7:53 AM 70.0 °F 51.1 °F 51% 30.06 in 10.0 mi East 8.1 mph - N/A   Clear
8:53 AM 73.9 °F 51.1 °F 45% 30.05 in 10.0 mi ESE 5.8 mph - N/A   Clear
9:53 AM 77.0 °F 51.1 °F 40% 30.03 in 10.0 mi ESE 4.6 mph - N/A   Clear
10:53 AM 82.0 °F 46.9 °F 29% 30.02 in 10.0 mi Variable 3.5 mph - N/A   Clear
11:53 AM 84.9 °F 48.0 °F 28% 29.99 in 10.0 mi SW 6.9 mph - N/A   Clear
12:53 PM 88.0 °F 48.0 °F 25% 29.96 in 10.0 mi Variable 4.6 mph - N/A   Clear
1:53 PM 90.0 °F 45.0 °F 21% 29.92 in 10.0 mi Variable 4.6 mph - N/A   Clear
2:53 PM 93.0 °F 45.0 °F 19% 29.90 in 10.0 mi SW 13.8 mph 20.7 mph N/A   Clear
3:53 PM 93.9 °F 43.0 °F 17% 29.88 in 10.0 mi West 12.7 mph 18.4 mph N/A   Clear
4:53 PM 93.9 °F 39.9 °F 15% 29.87 in 10.0 mi West 12.7 mph 17.3 mph N/A   Partly Cloudy
5:53 PM 91.9 °F 42.1 °F 18% 29.88 in 10.0 mi SW 11.5 mph 18.4 mph N/A   Partly Cloudy
6:27 PM 84.2 °F 46.4 °F 27% 30.12 in 10.0 mi East 16.1 mph - N/A   Mostly Cloudy
6:53 PM 84.0 °F 46.0 °F 26% 29.93 in 10.0 mi East 12.7 mph - N/A   Partly Cloudy
7:53 PM 81.0 °F 44.1 °F 27% 29.96 in 10.0 mi East 17.3 mph - N/A   Mostly Cloudy
8:53 PM 75.0 °F 51.1 °F 43% 30.01 in 10.0 mi SE 19.6 mph 27.6 mph N/A   Mostly Cloudy
9:53 PM 73.0 °F 52.0 °F 48% 30.01 in 10.0 mi SE 15.0 mph 25.3 mph N/A   Partly Cloudy
10:53 PM 73.9 °F 51.1 °F 45% 30.01 in 10.0 mi East 8.1 mph 17.3 mph N/A   Scattered Clouds
11:53 PM 72.0 °F 50.0 °F 46% 30.01 in 10.0 mi NE 5.8 mph - N/A   Mostly Cloudy